Flag Weather past 2 weeks in Medina, Saudi Arabia

Now
66 °F

Passing clouds.


Feels Like: 66 °F
Forecast: 59 / 73 °F
Wind: 7 mph from Southeast

Location: Madinah

Current Time: Nov 24, 2014 at 4:37:35 AM

Latest Report: Nov 24, 2014 at 4:00 AM


Visibility: N/A

Pressure: 29.92 "Hg

Humidity: 56%

Dew point: 50 °F

Location of MedinaLocation

Historic Weather in Medina — Graph

°F

Medina temperature yesterday

Maximum temperature yesterday: 82 °F (at 2:00 PM)
Minimum temperature yesterday: 64 °F (at 6:00 AM)
Average temperature yesterday: 73 °F

Past Weeks' High & Low Weather Summary

 TemperatureHumidityPressure
High90 °F (Nov 14, 3:00 PM)100% (Nov 23, 4:00 AM)30.24 "Hg (Nov 23, 4:00 AM)
Low61 °F (Nov 12, 7:00 AM)5% (Nov 14, 3:00 PM)29.92 "Hg (Nov 13, 3:00 PM)
Average76 °F31%30.06 "Hg
* Reported Nov 9 3:00 AM — Nov 24 3:00 AM, Medina, Weather by CustomWeather, © 2014

Note: Actual official high and low records may vary slightly from our data, if they occured in-between our weather recording intervals... More about our weather records

Advertising

Medina weather history for previous 24 hours

 ConditionsComfort  
Time TempWeatherWind HumidityBarometerVisibility
3:00 AM
Nov 24
68 °FPassing clouds.5 mph53%29.95 "HgN/A
2:00 AM70 °FPassing clouds.5 mph53%29.95 "HgN/A
1:00 AM70 °FPassing clouds.8 mph53%29.95 "HgN/A
12:00 AM70 °FPassing clouds.No wind53%29.95 "HgN/A
11:00 PM
Nov 23
70 °FClear.7 mph57%29.95 "Hg10 mi
10:00 PM73 °FClear.5 mph50%29.95 "Hg10 mi
9:00 PM75 °FClear.7 mph47%29.98 "Hg10 mi
8:00 PM73 °FClear.9 mph47%29.95 "Hg10 mi
7:00 PM77 °FPassing clouds.7 mph34%29.95 "HgN/A
6:00 PM77 °FPassing clouds.9 mph36%29.95 "HgN/A
5:00 PM81 °FScattered clouds.12 mph32%29.95 "Hg6 mi
4:00 PM82 °FScattered clouds.15 mph30%29.92 "HgN/A
3:00 PM82 °FScattered clouds.13 mph30%29.95 "HgN/A
2:00 PM82 °FScattered clouds.14 mph32%29.95 "HgN/A
1:00 PM81 °FScattered clouds.9 mph39%29.98 "HgN/A
12:00 PM77 °FScattered clouds.No wind51%30.01 "HgN/A
11:00 AM75 °FPassing clouds.5 mph54%30.04 "Hg5 mi
10:00 AM72 °FPassing clouds.No wind65%30.09 "Hg4 mi
9:00 AM68 °FHaze.3 mph78%30.07 "Hg2 mi
8:00 AM64 °FScattered clouds.No wind100%30.07 "Hg4 mi
7:00 AM64 °FScattered clouds.No wind100%30.04 "Hg4 mi
6:00 AM64 °FPassing clouds.No wind100%30.04 "Hg5 mi
5:00 AM66 °FPassing clouds.No wind100%30.01 "Hg4 mi
4:00 AM66 °FFog.No wind100%30.01 "Hg3 mi
Weather by CustomWeather, © 2014

See weather overviewHow to use our weather pages